N6DZK Weather Reports


Display with metric or nautical units.
time (UTC)temp
F
wind
direction
speed
MPH
gust
MPH
rain 1hr
in
rain 24hr
in
rain mn
in
humidity
%
barometer
mb
20260506010933 62 37 0.0 0.0 0.00 0.00 0.00 72 1016.2
20260506010432 62 37 0.0 1.0 0.00 0.00 0.00 72 1016.1
20260506005927 62 89 0.0 1.0 0.00 0.00 0.00 72 1016.2
20260506005425 62 35 0.0 2.0 0.00 0.00 0.00 71 1016.1
20260506004920 62 53 0.0 0.0 0.00 0.00 0.00 71 1016.2
20260506004419 62 37 0.0 0.0 0.00 0.00 0.00 71 1016.0
20260506003914 62 76 0.0 0.0 0.00 0.00 0.00 71 1016.1
20260506003411 62 89 0.0 2.0 0.00 0.00 0.00 71 1016.0
20260506002908 62 129 0.0 0.0 0.00 0.00 0.00 70 1016.1
20260506002403 62 63 0.0 1.0 0.00 0.00 0.00 70 1015.9
20260506001859 62 65 0.0 0.0 0.00 0.00 0.00 70 1015.9
20260506001356 62 224 0.0 2.0 0.00 0.00 0.00 70 1016.1
20260506000853 63 52 0.0 1.0 0.00 0.00 0.00 69 1015.8
20260506000353 63 110 0.0 1.0 0.00 0.00 0.00 69 1016.0
20260505235847 63 103 0.0 0.0 0.00 0.00 0.00 69 1015.8
20260505235345 63 32 0.0 0.0 0.00 0.00 0.00 69 1015.9
20260505234842 63 44 0.0 1.0 0.00 0.00 0.00 67 1015.8
20260505234340 63 89 0.0 1.0 0.00 0.00 0.00 67 1015.7
20260505233836 63 72 0.0 1.0 0.00 0.00 0.00 67 1015.8
20260505233334 63 37 0.0 0.0 0.00 0.00 0.00 68 1015.7
20260505232831 63 50 0.0 1.0 0.00 0.00 0.00 66 1016.0
20260505232329 63 50 4.0 4.0 0.00 0.00 0.00 66 1015.7
20260505231825 63 89 0.0 0.0 0.00 0.00 0.00 68 1015.9
20260505231324 62 49 2.0 2.0 0.00 0.00 0.00 66 1015.8
20260505230822 62 53 0.0 1.0 0.00 0.00 0.00 68 1016.0
20260505230318 62 62 0.0 2.0 0.00 0.00 0.00 66 1016.2
20260505225815 62 23 0.0 1.0 0.00 0.00 0.00 66 1015.8
20260505225312 62 44 0.0 2.0 0.00 0.00 0.00 67 1015.9
20260505224807 62 81 0.0 3.0 0.00 0.00 0.00 67 1016.1
20260505224305 62 322 0.0 0.0 0.00 0.00 0.00 67 1016.1
20260505223802 62 27 2.0 2.0 0.00 0.00 0.00 68 1015.9
20260505223259 62 68 1.0 3.0 0.00 0.00 0.00 67 1016.2
20260505222755 62 55 0.0 2.0 0.00 0.00 0.00 68 1016.3
20260505222251 62 269 0.0 2.0 0.00 0.00 0.00 68 1016.4
20260505221748 62 55 2.0 2.0 0.00 0.00 0.00 68 1016.2
20260505221245 62 114 0.0 2.0 0.00 0.00 0.00 68 1016.3
20260505220741 62 46 2.0 3.0 0.00 0.00 0.00 67 1016.2
20260505220239 62 13 2.0 3.0 0.00 0.00 0.00 67 1016.2
20260505215737 63 359 2.0 4.0 0.00 0.00 0.00 65 1016.3
20260505215235 63 322 0.0 2.0 0.00 0.00 0.00 64 1016.2
20260505214733 64 55 0.0 1.0 0.00 0.00 0.00 64 1016.3
20260505214229 64 65 0.0 2.0 0.00 0.00 0.00 63 1016.2
20260505213727 64 13 3.0 3.0 0.00 0.00 0.00 64 1016.4
20260505213224 63 326 0.0 2.0 0.00 0.00 0.00 66 1016.3
20260505212720 62 68 0.0 3.0 0.00 0.00 0.00 66 1016.4
20260505212217 62 15 1.0 2.0 0.00 0.00 0.00 67 1016.4
20260505211714 62 85 0.0 3.0 0.00 0.00 0.00 67 1016.4
20260505211212 62 355 0.0 1.0 0.00 0.00 0.00 66 1016.6
20260505210708 62 28 1.0 3.0 0.00 0.00 0.00 66 1016.5
20260505210205 63 5 0.0 2.0 0.00 0.00 0.00 64 1016.5
20260505205702 64 290 0.0 1.0 0.00 0.00 0.00 64 1016.6
20260505205200 64 89 0.0 2.0 0.00 0.00 0.00 62 1016.5
20260505204656 64 315 0.0 3.0 0.00 0.00 0.00 64 1016.2
20260505204155 63 322 0.0 2.0 0.00 0.00 0.00 65 1016.5
20260505203652 63 66 2.0 2.0 0.00 0.00 0.00 66 1016.3
20260505203148 63 51 2.0 2.0 0.00 0.00 0.00 64 1016.5
20260505202644 63 48 1.0 3.0 0.00 0.00 0.00 62 1016.4
20260505202140 63 103 0.0 4.0 0.00 0.00 0.00 64 1016.5
20260505201637 64 5 1.0 3.0 0.00 0.00 0.00 63 1016.5
20260505201135 64 299 0.0 2.0 0.00 0.00 0.00 63 1016.5
20260505200633 63 69 0.0 3.0 0.00 0.00 0.00 64 1016.5
20260505200129 62 335 0.0 4.0 0.00 0.00 0.00 67 1016.6
20260505195625 62 32 0.0 4.0 0.00 0.00 0.00 67 1016.6
20260505195123 61 320 1.0 2.0 0.00 0.00 0.00 68 1016.7
20260505194620 61 41 1.0 4.0 0.00 0.00 0.00 68 1016.8
20260505194116 60 127 0.0 3.0 0.00 0.00 0.00 68 1016.8
20260505193613 60 269 0.0 3.0 0.00 0.00 0.00 68 1016.9
20260505193110 61 115 1.0 2.0 0.00 0.00 0.00 68 1016.8
20260505192609 61 51 2.0 4.0 0.00 0.00 0.00 67 1016.9
20260505192105 60 323 2.0 2.0 0.00 0.00 0.00 67 1016.9
20260505191604 60 44 0.0 1.0 0.00 0.00 0.00 68 1016.7
20260505191101 60 60 0.0 5.0 0.00 0.00 0.00 68 1016.7
20260505190555 60 85 2.0 2.0 0.00 0.00 0.00 69 1016.8
20260505190052 60 53 0.0 3.0 0.00 0.00 0.00 68 1016.6
20260505185549 59 93 0.0 2.0 0.00 0.00 0.00 68 1016.8
20260505185045 59 315 0.0 3.0 0.00 0.00 0.00 69 1016.9
20260505184542 59 295 0.0 2.0 0.00 0.00 0.00 68 1016.8
20260505184039 59 48 2.0 4.0 0.00 0.00 0.00 69 1016.8
20260505183535 59 289 1.0 3.0 0.00 0.00 0.00 68 1016.7
20260505183033 59 135 0.0 2.0 0.00 0.00 0.00 68 1016.5
20260505182529 59 21 2.0 2.0 0.00 0.00 0.00 69 1016.7
20260505182027 59 124 0.0 2.0 0.00 0.00 0.00 67 1016.6
20260505181523 59 77 2.0 3.0 0.00 0.00 0.00 67 1016.6
20260505181021 59 29 0.0 1.0 0.00 0.00 0.00 67 1016.6
20260505180516 59 77 0.0 2.0 0.00 0.00 0.00 68 1016.4
20260505180015 59 40 2.0 2.0 0.00 0.00 0.00 68 1016.6
20260505175514 59 82 1.0 2.0 0.00 0.00 0.00 67 1016.3
20260505175012 59 55 0.0 2.0 0.00 0.00 0.00 68 1016.3
20260505174509 59 71 1.0 3.0 0.00 0.00 0.00 67 1016.3
20260505174005 59 55 2.0 3.0 0.00 0.00 0.00 68 1016.3
20260505173501 59 312 0.0 2.0 0.00 0.00 0.00 67 1016.1
20260505172958 59 9 0.0 4.0 0.00 0.00 0.00 65 1016.2
20260505172457 59 40 1.0 2.0 0.00 0.00 0.00 66 1016.1
20260505171957 59 110 0.0 2.0 0.00 0.00 0.00 67 1016.2
20260505171453 59 53 0.0 1.0 0.00 0.00 0.00 68 1016.1
20260505170950 59 89 0.0 2.0 0.00 0.00 0.00 68 1016.1
20260505170446 59 159 0.0 2.0 0.00 0.00 0.00 70 1016.1
20260505165942 59 113 0.0 1.0 0.00 0.00 0.00 70 1016.1
20260505165438 58 76 0.0 2.0 0.00 0.00 0.00 72 1016.2
20260505164934 58 25 0.0 4.0 0.00 0.00 0.00 69 1016.2
20260505164431 58 101 2.0 2.0 0.00 0.00 0.00 72 1016.4
20260505163928 57 39 2.0 2.0 0.00 0.00 0.00 71 1016.2
20260505163427 57 21 0.0 2.0 0.00 0.00 0.00 71 1016.2
20260505162926 57 50 0.0 1.0 0.00 0.00 0.00 73 1016.1
20260505162421 57 235 0.0 1.0 0.00 0.00 0.00 72 1016.0
20260505161918 57 71 0.0 1.0 0.00 0.00 0.00 72 1016.0
20260505161415 57 257 0.0 2.0 0.00 0.00 0.00 72 1015.9
20260505160913 57 77 0.0 0.0 0.00 0.00 0.00 74 1015.9
20260505160410 56 50 0.0 2.0 0.00 0.00 0.00 73 1015.8
20260505153349 55 27 0.0 2.0 0.00 0.00 0.00 75 1015.9
20260505152846 55 49 0.0 1.0 0.00 0.00 0.00 75 1015.8
20260505152343 55 119 0.0 3.0 0.00 0.00 0.00 74 1015.9
20260505151837 55 83 0.0 2.0 0.00 0.00 0.00 75 1015.7
20260505151334 55 129 0.0 2.0 0.00 0.00 0.00 75 1015.6
20260505150831 55 132 0.0 1.0 0.00 0.00 0.00 75 1015.8
20260505150328 55 135 0.0 2.0 0.00 0.00 0.00 75 1015.6
20260505140252 54 304 0.0 2.0 0.00 0.00 0.00 75 1015.3
20260505130216 52 103 0.0 1.0 0.00 0.00 0.00 77 1015.0
20260505124706 52 103 0.0 1.0 0.00 0.00 0.00 76 1015.0
20260505124203 52 112 0.0 2.0 0.00 0.00 0.00 76 1015.2
20260505123659 53 67 2.0 2.0 0.00 0.00 0.00 76 1015.0
20260505123156 53 52 0.0 2.0 0.00 0.00 0.00 76 1015.1
20260505122652 53 52 0.0 1.0 0.00 0.00 0.00 75 1015.3
20260505122149 53 96 0.0 2.0 0.00 0.00 0.00 75 1015.2
20260505121646 53 113 1.0 2.0 0.00 0.00 0.00 75 1015.2
20260505121143 53 82 1.0 2.0 0.00 0.00 0.00 75 1015.2
20260505120639 53 114 0.0 1.0 0.00 0.00 0.00 74 1015.3
20260505120135 53 75 1.0 1.0 0.00 0.00 0.00 74 1015.2
20260505115629 53 119 1.0 2.0 0.00 0.00 0.00 74 1015.2
20260505115127 53 95 1.0 2.0 0.00 0.00 0.00 73 1015.3
20260505114624 53 51 2.0 3.0 0.00 0.00 0.00 73 1015.4
20260505114120 53 51 0.0 2.0 0.00 0.00 0.00 73 1015.2
20260505113617 53 56 1.0 2.0 0.00 0.00 0.00 73 1015.2
20260505113114 53 89 0.0 1.0 0.00 0.00 0.00 73 1015.4
20260505112610 53 98 0.0 1.0 0.00 0.00 0.00 72 1015.1
20260505112108 53 66 0.0 1.0 0.00 0.00 0.00 72 1015.0
20260505111602 53 76 0.0 3.0 0.00 0.00 0.00 71 1015.3
20260505111058 53 57 0.0 2.0 0.00 0.00 0.00 72 1015.3
20260505110555 53 89 0.0 2.0 0.00 0.00 0.00 72 1015.2
20260505102027 54 321 0.0 3.0 0.00 0.00 0.00 75 1014.9
20260505101526 54 103 0.0 1.0 0.00 0.00 0.00 75 1015.2
20260505101022 54 40 0.0 2.0 0.00 0.00 0.00 75 1015.1
20260505100519 54 76 0.0 2.0 0.00 0.00 0.00 75 1015.1
20260505100016 54 95 0.0 2.0 0.00 0.00 0.00 75 1015.0
20260505095511 54 44 0.0 1.0 0.00 0.00 0.00 75 1015.1
20260505095008 54 282 0.0 3.0 0.00 0.00 0.00 75 1015.0
20260505094505 54 33 0.0 3.0 0.00 0.00 0.00 74 1015.2
20260505094001 54 312 1.0 3.0 0.00 0.00 0.00 74 1015.3
20260505093457 54 310 0.0 3.0 0.00 0.00 0.00 74 1015.1
20260505092955 54 73 0.0 2.0 0.00 0.00 0.00 75 1015.3
20260505092452 55 131 0.0 3.0 0.00 0.00 0.00 74 1015.2
20260505091950 55 104 0.0 4.0 0.00 0.00 0.00 75 1015.5
20260505091447 55 131 0.0 2.0 0.00 0.00 0.00 75 1015.4
20260505090945 55 129 0.0 2.0 0.00 0.00 0.00 75 1015.3
20260505090443 55 93 2.0 2.0 0.00 0.00 0.00 75 1015.4
20260505085940 55 32 3.0 3.0 0.00 0.00 0.00 75 1015.4
20260505085438 55 328 0.0 3.0 0.00 0.00 0.00 75 1015.5
20260505084936 55 33 0.0 2.0 0.00 0.00 0.00 76 1015.4
20260505084434 55 73 0.0 2.0 0.00 0.00 0.00 76 1015.5
20260505083931 55 41 2.0 4.0 0.00 0.00 0.00 76 1015.6
20260505083429 55 43 1.0 3.0 0.00 0.00 0.00 76 1015.6
20260505082925 55 315 0.0 6.0 0.00 0.00 0.00 76 1015.7
20260505082420 55 299 0.0 3.0 0.00 0.00 0.00 77 1015.4
20260505081918 55 6 0.0 2.0 0.00 0.00 0.00 77 1015.6
20260505081415 55 55 4.0 4.0 0.00 0.00 0.00 77 1015.4
20260505080911 55 81 1.0 2.0 0.00 0.00 0.00 77 1015.5
20260505080407 55 113 0.0 1.0 0.00 0.00 0.00 77 1015.5
20260505075903 55 38 1.0 1.0 0.00 0.00 0.00 77 1015.6
20260505075400 55 29 0.0 2.0 0.00 0.00 0.00 77 1015.7
20260505074857 55 56 0.0 4.0 0.00 0.00 0.00 77 1015.6
20260505074354 55 25 1.0 2.0 0.00 0.00 0.00 77 1015.8
20260505073852 55 89 1.0 2.0 0.00 0.00 0.00 77 1015.9
20260505073349 55 31 0.0 2.0 0.00 0.00 0.00 77 1015.6
20260505072846 55 74 0.0 2.0 0.00 0.00 0.00 77 1015.4
20260505072342 55 59 1.0 2.0 0.00 0.00 0.00 78 1015.4
20260505071838 55 39 0.0 2.0 0.00 0.00 0.00 78 1015.6
20260505071335 55 35 0.0 3.0 0.00 0.00 0.00 78 1015.5
20260505070833 55 20 1.0 2.0 0.00 0.00 0.00 79 1015.4
20260505070329 55 272 1.0 2.0 0.00 0.00 0.00 79 1015.3
20260505065824 55 315 0.0 1.0 0.00 0.00 0.00 79 1015.3
20260505065322 55 99 0.0 2.0 0.00 0.00 0.00 78 1015.3
20260505064819 55 69 0.0 1.0 0.00 0.00 0.00 78 1015.4
20260505064315 55 55 0.0 4.0 0.00 0.00 0.00 78 1015.4
20260505063814 55 233 0.0 2.0 0.00 0.00 0.00 77 1015.5
20260505063310 55 338 2.0 2.0 0.00 0.00 0.00 77 1015.3
20260505062806 56 73 0.0 1.0 0.00 0.00 0.00 77 1015.3
20260505062304 56 238 1.0 2.0 0.00 0.00 0.00 77 1015.2
20260505061800 56 31 0.0 2.0 0.00 0.00 0.00 76 1015.2
20260505061259 56 57 2.0 3.0 0.00 0.00 0.00 76 1015.1
20260505060756 56 343 0.0 3.0 0.00 0.00 0.00 76 1015.3
20260505060253 56 89 0.0 2.0 0.00 0.00 0.00 76 1015.3
20260505055748 56 52 2.0 2.0 0.00 0.00 0.00 76 1015.2
20260505055244 56 87 1.0 1.0 0.00 0.00 0.00 76 1015.5
20260505054742 57 326 0.0 2.0 0.00 0.00 0.00 76 1015.4
20260505054239 57 281 1.0 2.0 0.00 0.00 0.00 75 1015.5
20260505053738 57 62 0.0 2.0 0.00 0.00 0.00 75 1015.6
20260505053234 57 11 1.0 3.0 0.00 0.00 0.00 74 1015.8
20260505052731 57 77 0.0 1.0 0.00 0.00 0.00 73 1015.9
20260505052228 57 56 0.0 2.0 0.00 0.00 0.00 73 1015.6
20260505051725 57 60 0.0 2.0 0.00 0.00 0.00 73 1015.6
20260505051223 57 89 0.0 2.0 0.00 0.00 0.00 73 1015.7
20260505050721 57 106 0.0 2.0 0.00 0.00 0.00 72 1015.6
20260505050219 57 279 0.0 1.0 0.00 0.00 0.00 72 1015.9
20260505041648 57 43 2.0 4.0 0.00 0.00 0.00 67 1015.2
20260505041146 57 83 0.0 3.0 0.00 0.00 0.00 68 1015.3
20260505040643 57 38 0.0 3.0 0.00 0.00 0.00 68 1015.3
20260505040140 57 44 0.0 2.0 0.00 0.00 0.00 69 1015.1
20260505035636 58 134 0.0 2.0 0.00 0.00 0.00 69 1015.2
20260505035132 58 160 0.0 3.0 0.00 0.00 0.00 69 1014.9
20260505034629 58 136 1.0 2.0 0.00 0.00 0.00 69 1014.9
20260505034126 58 52 0.0 1.0 0.00 0.00 0.00 68 1014.8
20260505033623 58 167 0.0 2.0 0.00 0.00 0.00 68 1014.4
20260505033121 58 48 0.0 2.0 0.00 0.00 0.00 68 1014.7
20260505032619 58 134 0.0 2.0 0.00 0.00 0.00 66 1014.6
20260505032115 59 114 0.0 1.0 0.00 0.00 0.00 65 1014.5
20260505031612 59 235 0.0 2.0 0.00 0.00 0.00 65 1014.8
20260505031108 59 111 0.0 2.0 0.00 0.00 0.00 65 1014.6
20260505030606 60 14 0.0 1.0 0.00 0.00 0.00 65 1014.7
20260505025557 60 162 1.0 2.0 0.00 0.00 0.00 64 1014.5
20260505025056 60 37 0.0 1.0 0.00 0.00 0.00 65 1014.3
20260505024553 60 2 1.0 2.0 0.00 0.00 0.00 64 1014.5
20260505024050 60 108 1.0 2.0 0.00 0.00 0.00 65 1014.7
20260505023547 60 48 0.0 2.0 0.00 0.00 0.00 64 1014.6
20260505023045 60 56 0.0 2.0 0.00 0.00 0.00 64 1014.7
20260505022542 61 315 0.0 2.0 0.00 0.00 0.00 63 1014.5
20260505022039 61 141 0.0 2.0 0.00 0.00 0.00 63 1014.5
20260505021536 61 343 0.0 3.0 0.00 0.00 0.00 63 1014.4
20260505021033 61 50 2.0 3.0 0.00 0.00 0.00 62 1014.3
20260505020532 61 51 1.0 2.0 0.00 0.00 0.00 63 1014.6
20260505020030 61 42 0.0 2.0 0.00 0.00 0.00 62 1014.4
20260505015527 61 24 0.0 1.0 0.00 0.00 0.00 62 1014.5
20260505015024 61 308 2.0 2.0 0.00 0.00 0.00 63 1014.2
20260505014520 61 32 2.0 2.0 0.00 0.00 0.00 62 1014.3
20260505014018 61 42 0.0 4.0 0.00 0.00 0.00 62 1014.4
20260505013515 61 73 1.0 2.0 0.00 0.00 0.00 62 1014.6
20260505013012 62 119 0.0 2.0 0.00 0.00 0.00 62 1014.4
20260505012510 62 39 0.0 1.0 0.00 0.00 0.00 61 1014.5
20260505012007 62 71 0.0 2.0 0.00 0.00 0.00 61 1014.5
20260505011502 62 21 0.0 4.0 0.00 0.00 0.00 60 1014.5